DW7322 Weather Reports


Display with metric or nautical units.
time (UTC)temp
F
wind
direction
speed
MPH
gust
MPH
rain 1hr
in
rain 24hr
in
rain mn
in
humidity
%
barometer
mb
20260506133013 49 183 0.0 1.0 0.00 0.00 0.00 56 1014.7
20260506131530 49 257 0.0 0.0 0.00 0.00 0.00 60 1014.5
20260506130051 47 1 0.0 1.0 0.00 0.00 0.00 66 1014.4
20260506124538 44 1 0.0 0.0 0.00 0.00 0.00 73 1014.4
20260506123052 42 2 0.0 0.0 0.00 0.00 0.00 79 1014.1
20260506121514 40 1 0.0 0.0 0.00 0.00 0.00 80 1013.9
20260506120008 40 1 0.0 0.0 0.00 0.00 0.00 78 1013.6
20260506114541 39 1 0.0 0.0 0.00 0.00 0.00 78 1013.5
20260506113050 39 1 0.0 1.0 0.00 0.00 0.00 80 1013.4
20260506111514 38 1 0.0 0.0 0.00 0.00 0.00 81 1013.4
20260506110007 38 1 0.0 0.0 0.00 0.00 0.00 81 1013.3
20260506104534 38 1 0.0 1.0 0.00 0.00 0.00 80 1013.3
20260506103044 38 1 0.0 0.0 0.00 0.00 0.00 79 1013.1
20260506101503 39 1 0.0 0.0 0.00 0.00 0.00 78 1012.7
20260506100120 39 1 0.0 0.0 0.00 0.00 0.00 78 1012.6
20260506094512 39 1 0.0 1.0 0.00 0.00 0.00 77 1012.6
20260506093036 39 1 0.0 0.0 0.00 0.00 0.00 77 1012.6
20260506091552 40 1 0.0 0.0 0.00 0.00 0.00 76 1012.6
20260506090117 40 1 0.0 0.0 0.00 0.00 0.00 74 1012.4
20260506084510 41 1 0.0 0.0 0.00 0.00 0.00 73 1012.6
20260506083032 41 1 0.0 1.0 0.00 0.00 0.00 70 1012.5
20260506081551 39 1 0.0 0.0 0.00 0.00 0.00 73 1012.3
20260506080116 40 1 0.0 0.0 0.00 0.00 0.00 74 1012.3
20260506073022 42 1 0.0 0.0 0.00 0.00 0.00 67 1012.0
20260506071536 44 1 0.0 1.0 0.00 0.00 0.00 63 1012.0
20260506070110 44 1 0.0 1.0 0.00 0.00 0.00 62 1011.8
20260506061537 43 312 0.0 0.0 0.00 0.00 0.00 66 1012.0
20260506050138 46 312 0.0 0.0 0.00 0.00 0.00 71 1011.4
20260506044547 47 311 0.0 0.0 0.00 0.00 0.00 66 1011.2
20260506043007 47 311 0.0 0.0 0.00 0.00 0.00 66 1011.1
20260506041527 47 311 0.0 0.0 0.00 0.00 0.00 67 1011.5
20260506040100 48 311 0.0 0.0 0.00 0.00 0.00 67 1011.5
20260506034549 48 311 0.0 0.0 0.00 0.00 0.00 65 1011.2
20260506033005 48 311 0.0 0.0 0.00 0.00 0.00 72 1011.2
20260506031538 48 310 0.0 0.0 0.00 0.00 0.00 68 1010.9
20260506030009 48 311 0.0 0.0 0.00 0.00 0.00 67 1010.7
20260506024534 49 311 0.0 0.0 0.00 0.00 0.00 63 1010.4
20260506023053 49 311 0.0 0.0 0.00 0.00 0.00 60 1010.5
20260506021512 50 311 0.0 0.0 0.00 0.00 0.00 58 1010.4
20260506020002 50 311 0.0 0.0 0.00 0.00 0.00 55 1010.2
20260506014522 50 311 0.0 0.0 0.00 0.00 0.00 54 1009.8
20260506013047 51 311 0.0 0.0 0.00 0.00 0.00 57 1009.7
20260506011507 51 311 0.0 1.0 0.00 0.00 0.00 52 1009.3
20260506010124 52 310 0.0 1.0 0.00 0.00 0.00 52 1009.4
20260506004524 52 310 0.0 0.0 0.00 0.00 0.00 51 1009.1
20260506003044 53 309 0.0 1.0 0.00 0.00 0.00 47 1009.1
20260506001508 53 308 0.0 2.0 0.00 0.00 0.00 47 1008.8
20260506000124 53 311 0.0 3.0 0.00 0.00 0.00 48 1008.9
20260505234522 54 308 0.0 1.0 0.00 0.00 0.00 47 1008.9
20260505233043 54 305 0.0 3.0 0.00 0.00 0.00 45 1008.9
20260505231510 54 289 1.0 5.0 0.00 0.00 0.00 43 1009.1
20260505230003 54 314 0.0 3.0 0.00 0.00 0.00 43 1009.0
20260505224530 55 314 0.0 4.0 0.00 0.00 0.00 43 1009.2
20260505223052 56 290 1.0 4.0 0.00 0.00 0.00 41 1009.3
20260505221510 55 276 1.0 3.0 0.00 0.00 0.00 40 1009.1
20260505220041 55 307 1.0 5.0 0.00 0.00 0.00 42 1009.1
20260505214544 55 311 0.0 4.0 0.00 0.00 0.00 40 1009.3
20260505213052 55 310 0.0 6.0 0.00 0.00 0.00 42 1009.3
20260505211512 55 310 0.0 4.0 0.00 0.00 0.00 41 1009.2
20260505210126 55 286 0.0 3.0 0.00 0.00 0.00 40 1009.2
20260505204528 55 306 0.0 5.0 0.00 0.00 0.00 39 1009.3
20260505203044 55 301 0.0 3.0 0.00 0.00 0.00 42 1009.5
20260505201505 55 307 1.0 4.0 0.00 0.00 0.00 38 1009.6
20260505200116 55 276 1.0 3.0 0.00 0.00 0.00 40 1009.6
20260505194509 55 325 0.0 4.0 0.00 0.00 0.00 36 1009.6
20260505193037 55 306 1.0 6.0 0.00 0.00 0.00 35 1009.4
20260505191550 56 326 2.0 6.0 0.00 0.00 0.00 37 1009.6
20260505190112 56 291 0.0 6.0 0.00 0.00 0.00 40 1009.8
20260505184502 55 289 1.0 6.0 0.00 0.00 0.00 37 1009.7
20260505183032 55 271 0.0 4.0 0.00 0.00 0.00 36 1009.6
20260505181550 55 314 1.0 4.0 0.00 0.00 0.00 38 1009.7
20260505180104 56 321 0.0 4.0 0.00 0.00 0.00 39 1009.6
20260505174606 56 303 0.0 5.0 0.00 0.00 0.00 39 1009.5
20260505173017 56 354 0.0 4.0 0.00 0.00 0.00 39 1009.3
20260505171535 56 292 1.0 5.0 0.00 0.00 0.00 41 1009.2
20260505170057 56 246 1.0 6.0 0.00 0.00 0.00 43 1009.2
20260505164613 56 289 0.0 5.0 0.00 0.00 0.00 46 1009.1
20260505163016 56 307 2.0 6.0 0.00 0.00 0.00 42 1009.3
20260505161540 56 267 0.0 6.0 0.00 0.00 0.00 41 1009.2
20260505160110 55 329 0.0 7.0 0.00 0.00 0.00 44 1009.0
20260505153030 55 340 0.0 4.0 0.00 0.00 0.00 47 1008.8
20260505151548 54 356 0.0 4.0 0.00 0.00 0.00 46 1008.5